TimeCST,TemperatureF,Dew PointF,Humidity,Sea Level PressureIn,VisibilityMPH,Wind Direction,Wind SpeedMPH,Gust SpeedMPH,PrecipitationIn,Events,Conditions,WindDirDegrees,DateUTC
12:06 AM,28.4,24.8,86,29.81,1.8,Calm,Calm,-,0.00,Snow,Light Snow,0,2013-01-28 06:06:00
12:13 AM,28.4,24.8,86,29.81,1.0,Calm,Calm,-,0.00,Snow,Light Snow,0,2013-01-28 06:13:00
12:35 AM,28.4,24.8,86,29.81,1.8,Calm,Calm,-,0.01,Snow,Light Snow,0,2013-01-28 06:35:00
12:44 AM,28.4,24.8,86,29.81,2.0,Calm,Calm,-,0.01,Snow,Light Snow,0,2013-01-28 06:44:00
12:53 AM,28.0,25.0,88,29.86,1.8,Calm,Calm,-,0.01,Snow,Light Snow,0,2013-01-28 06:53:00
1:07 AM,28.4,24.8,86,29.80,2.0,Calm,Calm,-,0.00,Snow,Light Snow,0,2013-01-28 07:07:00
1:15 AM,28.4,24.8,86,29.80,1.8,Calm,Calm,-,0.00,Snow,Light Snow,0,2013-01-28 07:15:00
1:28 AM,28.4,24.8,86,29.80,2.0,Calm,Calm,-,0.00,Snow,Light Snow,0,2013-01-28 07:28:00
1:37 AM,28.4,24.8,86,29.80,1.2,Calm,Calm,-,0.01,Snow,Light Snow,0,2013-01-28 07:37:00
1:53 AM,28.0,25.0,88,29.85,2.0,Calm,Calm,-,0.01,Snow,Light Snow,0,2013-01-28 07:53:00
2:08 AM,28.4,24.8,86,29.79,2.5,Calm,Calm,-,0.00,Snow,Light Snow,0,2013-01-28 08:08:00
2:22 AM,28.4,24.8,86,29.80,4.0,Calm,Calm,-,0.00,,Overcast,0,2013-01-28 08:22:00
2:53 AM,27.0,24.1,89,29.86,2.5,Calm,Calm,-,0.00,Snow,Light Snow,0,2013-01-28 08:53:00
3:17 AM,26.6,23.0,86,29.79,3.0,Calm,Calm,-,0.00,,Overcast,0,2013-01-28 09:17:00
3:41 AM,23.0,19.4,86,29.80,4.0,Calm,Calm,-,0.00,,Mostly Cloudy,0,2013-01-28 09:41:00
3:53 AM,23.0,19.9,88,29.86,5.0,Calm,Calm,-,0.00,,Mostly Cloudy,0,2013-01-28 09:53:00
4:08 AM,24.8,21.2,86,29.80,2.0,Calm,Calm,-,N/A,,Overcast,0,2013-01-28 10:08:00
4:21 AM,24.8,23.0,93,29.80,4.0,Calm,Calm,-,N/A,,Overcast,0,2013-01-28 10:21:00
4:48 AM,24.8,21.2,86,29.81,5.0,Calm,Calm,-,N/A,,Overcast,0,2013-01-28 10:48:00
4:53 AM,24.1,21.9,91,29.86,5.0,Calm,Calm,-,N/A,,Overcast,0,2013-01-28 10:53:00
5:53 AM,25.0,23.0,92,29.88,5.0,Calm,Calm,-,N/A,,Overcast,0,2013-01-28 11:53:00
6:53 AM,23.0,19.0,85,29.88,5.0,Calm,Calm,-,N/A,,Overcast,0,2013-01-28 12:53:00
7:10 AM,21.2,19.4,93,29.83,6.0,Calm,Calm,-,N/A,,Overcast,0,2013-01-28 13:10:00
7:20 AM,21.2,19.4,93,29.84,5.0,Calm,Calm,-,N/A,,Overcast,0,2013-01-28 13:20:00
7:53 AM,23.0,19.9,88,29.91,4.0,Calm,Calm,-,N/A,,Overcast,0,2013-01-28 13:53:00
8:17 AM,23.0,21.2,93,29.87,4.0,Calm,Calm,-,N/A,,Overcast,0,2013-01-28 14:17:00
8:53 AM,23.0,21.9,96,29.92,4.0,Calm,Calm,-,N/A,,Overcast,0,2013-01-28 14:53:00
9:53 AM,28.0,25.0,88,29.92,5.0,Calm,Calm,-,N/A,,Overcast,0,2013-01-28 15:53:00
10:53 AM,30.9,27.0,85,29.93,8.0,Calm,Calm,-,N/A,,Overcast,0,2013-01-28 16:53:00
11:04 AM,30.2,24.8,80,29.88,10.0,Calm,Calm,-,N/A,,Overcast,0,2013-01-28 17:04:00
11:53 AM,32.0,26.1,79,29.92,10.0,Calm,Calm,-,N/A,,Mostly Cloudy,0,2013-01-28 17:53:00
12:09 PM,33.8,26.6,75,29.85,10.0,Calm,Calm,-,N/A,,Scattered Clouds,0,2013-01-28 18:09:00
12:53 PM,33.1,26.1,75,29.90,10.0,Calm,Calm,-,N/A,,Mostly Cloudy,0,2013-01-28 18:53:00
1:04 PM,33.8,26.6,75,29.85,10.0,SSW,5.8,-,N/A,,Mostly Cloudy,200,2013-01-28 19:04:00
1:18 PM,33.8,26.6,75,29.84,10.0,Variable,4.6,-,N/A,,Scattered Clouds,0,2013-01-28 19:18:00
1:53 PM,34.0,27.0,75,29.89,10.0,Variable,3.5,-,N/A,,Clear,0,2013-01-28 19:53:00
2:53 PM,35.1,28.9,78,29.88,10.0,Calm,Calm,-,N/A,,Clear,0,2013-01-28 20:53:00
3:53 PM,33.1,28.9,85,29.91,10.0,Variable,3.5,-,N/A,,Clear,0,2013-01-28 21:53:00
4:53 PM,30.0,28.0,92,29.89,3.0,Calm,Calm,-,N/A,,Partly Cloudy,0,2013-01-28 22:53:00
5:53 PM,28.9,26.1,89,29.87,6.0,Calm,Calm,-,N/A,,Clear,0,2013-01-28 23:53:00
6:30 PM,26.6,24.8,93,29.83,2.5,Calm,Calm,-,N/A,,Clear,0,2013-01-29 00:30:00
6:41 PM,28.4,26.6,93,29.85,5.0,WSW,3.5,-,N/A,,Clear,250,2013-01-29 00:41:00
6:53 PM,28.9,27.0,92,29.90,6.0,Calm,Calm,-,N/A,,Scattered Clouds,0,2013-01-29 00:53:00
7:01 PM,28.4,26.6,93,29.84,6.0,Calm,Calm,-,N/A,,Mostly Cloudy,0,2013-01-29 01:01:00
7:53 PM,30.0,28.0,92,29.87,8.0,Calm,Calm,-,N/A,,Overcast,0,2013-01-29 01:53:00
8:53 PM,28.9,26.1,89,29.86,5.0,Calm,Calm,-,N/A,,Overcast,0,2013-01-29 02:53:00
9:30 PM,30.2,26.6,86,29.78,9.0,SSE,5.8,-,N/A,,Overcast,150,2013-01-29 03:30:00
9:53 PM,30.9,28.0,89,29.81,10.0,SE,5.8,-,N/A,,Overcast,140,2013-01-29 03:53:00
10:53 PM,30.0,27.0,88,29.77,7.0,ESE,3.5,-,N/A,,Overcast,120,2013-01-29 04:53:00
11:53 PM,30.0,27.0,88,29.71,6.0,SE,5.8,-,N/A,,Overcast,140,2013-01-29 05:53:00